Regional Weather Roundup
Issued by NWS Charleston, SC

Current Version | Previous Version | Graphics & Text | Print | Product List | Glossary On
Versions: 1 2 3 4 5 6 7 8 9 10 11 12 13 14 15 16 17 18 19 20 21 22 23 24 25 26 27 28 29 30 31 32 33 34 35 36 37 38 39 40 41 42 43 44 45 46 47 48 49 50
000 ASUS42 KCHS 232212 RWRCHS REGIONAL WEATHER ROUNDUP NATIONAL WEATHER SERVICE CHARLESTON SC 600 PM EDT SAT MAY 23 2015 NOTE: "FAIR" INDICATES FEW OR NO CLOUDS BELOW 12,000 FEET WITH NO SIGNIFICANT WEATHER AND/OR OBSTRUCTIONS TO VISIBILITY. NOT ALL STATIONS ARE QUALITY CONTROLLED BY THE NATIONAL WEATHER SERVICE. USE DATA WITH CAUTION...ESPECIALLY DEWPOINT OBSERVATIONS. SCZ027-030-031-034>040-042>050-232300- ...SOUTHEAST SOUTH CAROLINA... CITY SKY/WX TMP DP RH WIND PRES REMARKS N CHARLESTON MOSUNNY 78 57 48 E13 30.35S WATERFRONT PAR N/A 76 63 63 E14 30.32S MOUNT PLEASANT MOCLDY 75 61 60 E6 30.35S JOHNS ISLAND PTCLDY 75 63 64 NE14G21 30.35S PINOPOLIS N/A 81 55 41 E7 30.27F MONCKS CORNER FAIR 79 57 47 SE7 30.34S SUMMERVILLE FAIR 81 59 47 E10 30.34S BEAUFORT MCAS PTSUNNY 78 62 57 E13G20 30.33S BEAUFORT ARPT MOCLDY 75 64 69 E14 30.33S HILTON HEAD IS MOSUNNY 77 64 65 NE12G18 30.34S WALTERBORO HAZE 79 55 44 E12 30.33F VSB 1 ALLENDALE FAIR 82 50 32 CALM 30.30F ...SOUTHERN MIDLANDS AND PEE DEE... CITY SKY/WX TMP DP RH WIND PRES REMARKS GEORGETOWN NOT AVBL KINGSTREE NOT AVBL ORANGEBURG SUNNY 80 44 27 SE9 30.33F BARNWELL FAIR 82 43 24 E6 30.32F AIKEN FAIR 81 37 21 SE7 30.35F MANNING FAIR 79 1 5 E6 30.34S COLUMBIA SUNNY 83 45 26 SE8G18 30.32F SUMTER SUNNY 83 41 22 SE6 30.32S FLORENCE SUNNY 82 43 25 S8 30.34F MYRTLE BEACH SUNNY 79 57 47 E14 30.39S N MYRTLE BEACH SUNNY 76 57 51 E10 30.38R $$ GAZ063-065-086>088-099>101-113>116-118-119-134>141-150-232300- ...SOUTHEAST GEORGIA... CITY SKY/WX TMP DP RH WIND PRES REMARKS SAVANNAH ARPT PTSUNNY 79 60 52 E12 30.32S HUNTER AAF MOSUNNY 78 63 60 E12 30.30S FORT STEWART MOSUNNY 79 62 57 E7 30.29S STATESBORO MOSUNNY 83 61 47 SE7 30.31S SYLVANIA CLEAR 84 60 43 SE10 30.32S CLAXTON MOCLDY 79 63 57 E7 30.30S ...CSRA...CENTRAL AND FAR SOUTHEAST GEORGIA... CITY SKY/WX TMP DP RH WIND PRES REMARKS THOMSON SUNNY 85 50 30 E8 30.34F AUGUSTA-BUSH SUNNY 84 43 23 SE9 30.30F AUGUSTA-DANIEL SUNNY 84 45 25 VRB7 30.31F SWAINSBORO FAIR 86 52 30 E6 30.30F VIDALIA SUNNY 82 55 39 SE7 30.29S EASTMAN FAIR 87 51 29 E13 30.30S HAZLEHURST MOCLDY 85 56 37 SE6 30.27S ALMA MOSUNNY 82 60 47 E9G18 30.27F WAYCROSS MOSUNNY 84 66 54 SE14 30.27S JESUP FAIR 82 66 57 E9 30.30S BAXLEY FAIR 84 61 45 SE7 30.27F BRUNSWICK CLOUDY 77 64 65 NE12 30.31F SAINT SIMONS NOT AVBL $$ SCZ027-028-034-036>038-045-046-048>050-GAZ119-141-232300- ...LAKE AND SUPPLEMENTAL COASTAL OBSERVATIONS... STATION/POSITION TIME TEMP WIND PRES WAVE SWELL AIR SEA DIR/SP/G HT/PER HT/PER/DIR (UTC) (F) (DEG/KT/KT) (MB) (FT/S) (FT/S/D) UPR LAKE MARION NOT AVBL WINYAH BAY 2045 74 70/ 11 1027.0 LAKE MURRAY 2100 80 80/ 6/ 10 1026.4F ACE BASIN NERRS NOT AVBL FORT PULASKI 2100 74 78 60/ 17/ 20 1027.5F SAPELO ISLAND 2100 78 60/ 13 1026.0S $$ ANZ835-935-AMZ111-154-330-350-352-354-370-450-454-472-232300- ...C-MAN AND BUOY OBSERVATIONS... STATION/POSITION TIME TEMP WIND PRES WAVE SWELL AIR SEA DIR/SP/G HT/PER HT/PER/DIR (UTC) (F) (DEG/KT/KT) (MB) (FT/S) (FT/S/D) BUOY 41004 2150 75 76 70/ 17/ 19 1026.6F 4/ 5 2/ 8 BUOY 41008 2150 74 75 60/ 17/ 21 1026.0F 5/ 6 FOLLY BEACH CMAN 2200 74 60/ 16/ 17 1027.5F CAPERS NEARSHORE 2108 74 70/ 16/ 19 1027.8F FRIPP NEARSHORE 2100 75 60/ 17/ 19 1026.3F STATION/POSITION TIME TEMP WIND PRES WAVE SWELL AIR SEA DIR/SP/G HT/PER HT/PER/DIR (UTC) (F) (DEG/KT/KT) (MB) (FT/S) (FT/S/D) 5E ST. MARYS GA 2121 78 N/A 5/ 6 FRYING PAN BUOY 2150 74 74 70/ 14/ 17 1028.7R 4/ 6 2/ 80/ 8 BUOY 41025 2150 69 77 30/ 14/ 16 1029.1F 4/ 9 2/ 40/ 9 CAPE LOOKOUT NC 2200 70 70/ 14/ 15 1028.7F BUOY 41002 2150 72 75 70/ 19/ 23 1026.6F 6/ 6 2/350/12 BUOY 41010 2120 79 81 60/ 17/ 21 1023.2F ST AUGUSTINE FL 2200 77 78 50/ 12/ 13 1025.1F $$

USA.gov is the U.S. government's official web portal to all federal, state and local government web resources and services.